Lihue, HI

12:05 PM HST on February 23, 2017 (GMT -1000)
Lihue

Weather History for PHLI - September, 2013

Change the Weather History Date:

Monday, September 30, 2013

  Actual Average Record
Temperature  
Mean Temperature 78 °F 79 °F  
Max Temperature 84 °F 84 °F 88 °F (1981)
Min Temperature 71 °F 74 °F 65 °F (1968)
Degree Days  
Heating Degree Days 0 0  
Month to date heating degree days 0 0  
Since 1 July heating degree days 0 0  
Cooling Degree Days 13 14  
Month to date cooling degree days 460 433  
Year to date cooling degree days 2756 2959  
Growing Degree Days 26 (Base 50)    
Moisture  
Dew Point 70 °F    
Average Humidity 80    
Maximum Humidity 90    
Minimum Humidity 69    
Precipitation  
Precipitation 0.29 in 0.09 in 1.90 in (1960)
Month to date precipitation 2.11 2.12  
Year to date precipitation 19.32 23.57  
Snow  
Snow 0.00 in - - ()
Month to date snowfall 0.0  
Since 1 July snowfall 0.0  
Since 1 September snowfall 0.0  
Snow Depth 0.00 in    
Sea Level Pressure  
Sea Level Pressure 30.02 in    
Wind  
Wind Speed 10 mph (ENE)    
Max Wind Speed 23 mph    
Max Gust Speed 25 mph    
Visibility 10 miles    
Events Rain    
T = Trace of Precipitation, MM = Missing Value Source: NWS Daily Summary

Daily Weather History Graph

Daily Weather History Graph

Search for Another Location

Airport or City:

Trip Planner

Search our weather history database for the weather conditions in past years. The results will help you decide how hot, cold, wet, or windy it might be!

Date:

Astronomy

Sep. 30, 2013 Rise Set
Actual Time 6:28 AM HST 6:25 PM HST
Civil Twilight 6:06 AM HST 6:47 PM HST
Nautical Twilight 5:40 AM HST 7:13 PM HST
Astronomical Twilight 5:14 AM HST 7:39 PM HST
Moon 2:42 AM HST (9/30) 3:40 PM HST (9/30)
Length of Visible Light 12h 41m
Length of Day
11h 56m
Waning Crescent, 17% of the Moon is Illuminated
Sep 30
Waning Crescent
Oct 4
New
Oct 11
First Quarter
Oct 18
Full
Oct 26
Last Quarter

Hourly Weather History & Observations

Time (HST) Temp. Heat Index Dew Point Humidity Pressure Visibility Wind Dir Wind Speed Gust Speed Precip Events Conditions
12:53 AM 77.0 °F - 70.0 °F 79% 30.01 in 10.0 mi ENE 10.4 mph - 0.00 in   Mostly Cloudy
1:53 AM 77.0 °F - 70.0 °F 79% 30.00 in 10.0 mi East 9.2 mph - 0.02 in   Mostly Cloudy
2:53 AM 75.9 °F - 71.1 °F 85% 29.99 in 10.0 mi ENE 13.8 mph - N/A   Overcast
3:25 AM 75.2 °F - 68.0 °F 78% 29.99 in 10.0 mi NE 11.5 mph - N/A   Overcast
3:53 AM 75.0 °F - 70.0 °F 84% 29.99 in 10.0 mi NE 10.4 mph - N/A   Overcast
4:53 AM 72.0 °F - 66.9 °F 84% 29.99 in 10.0 mi NW 5.8 mph - 0.00 in Rain Rain
5:18 AM 71.6 °F - 68.0 °F 88% 30.00 in 10.0 mi West 6.9 mph - 0.02 in   Overcast
5:27 AM 71.6 °F - 66.2 °F 83% 30.00 in 10.0 mi West 8.1 mph - 0.02 in   Overcast
5:53 AM 71.1 °F - 66.9 °F 87% 29.99 in 10.0 mi West 4.6 mph - 0.02 in   Overcast
6:17 AM 71.6 °F - 66.2 °F 83% 30.01 in 10.0 mi West 10.4 mph - N/A   Mostly Cloudy
6:53 AM 72.0 °F - 68.0 °F 87% 30.01 in 10.0 mi West 6.9 mph - 0.00 in Rain Light Rain
7:00 AM 73.4 °F - 69.8 °F 88% 30.02 in 10.0 mi Calm Calm - 0.00 in Rain Light Rain
7:08 AM 73.4 °F - 69.8 °F 88% 30.02 in 10.0 mi WSW 5.8 mph - 0.00 in   Overcast
7:25 AM 73.4 °F - 69.8 °F 88% 30.03 in 10.0 mi West 5.8 mph - 0.00 in   Overcast
7:53 AM 75.0 °F - 70.0 °F 84% 30.02 in 10.0 mi Variable 4.6 mph - 0.25 in Rain Light Rain
8:04 AM 78.8 °F - 73.4 °F 83% 30.03 in 10.0 mi East 15.0 mph - 0.00 in   Overcast
8:13 AM 78.8 °F - 73.4 °F 83% 30.04 in 10.0 mi ESE 15.0 mph - 0.00 in   Mostly Cloudy
8:20 AM 78.8 °F - 73.4 °F 83% 30.04 in 10.0 mi East 15.0 mph - 0.00 in   Mostly Cloudy
8:53 AM 81.0 °F 85.2 °F 72.0 °F 74% 30.04 in 10.0 mi East 16.1 mph - 0.00 in   Scattered Clouds
9:53 AM 79.0 °F - 68.0 °F 69% 30.05 in 10.0 mi East 5.8 mph - 0.00 in   Overcast
10:53 AM 82.0 °F 86.3 °F 71.1 °F 69% 30.05 in 10.0 mi East 17.3 mph - 0.00 in   Mostly Cloudy
11:25 AM 82.4 °F 88.2 °F 73.4 °F 74% 30.04 in 10.0 mi East 17.3 mph - N/A   Mostly Cloudy
11:46 AM 80.6 °F 85.4 °F 73.4 °F 79% 30.04 in 10.0 mi East 13.8 mph - N/A   Scattered Clouds
11:53 AM 81.0 °F 85.2 °F 72.0 °F 74% 30.03 in 10.0 mi East 12.7 mph - N/A   Scattered Clouds
12:53 PM 82.9 °F 87.5 °F 71.1 °F 67% 30.01 in 10.0 mi East 13.8 mph - N/A   Partly Cloudy
1:53 PM 82.0 °F 86.3 °F 71.1 °F 69% 29.99 in 10.0 mi East 12.7 mph - N/A   Scattered Clouds
2:53 PM 81.0 °F 84.4 °F 70.0 °F 69% 29.98 in 10.0 mi East 9.2 mph - N/A   Partly Cloudy
3:53 PM 80.1 °F 82.7 °F 68.0 °F 67% 29.98 in 10.0 mi ENE 4.6 mph - N/A   Partly Cloudy
4:53 PM 81.0 °F 84.1 °F 69.1 °F 67% 29.98 in 10.0 mi NNE 6.9 mph - N/A   Clear
5:53 PM 79.0 °F - 71.1 °F 77% 29.99 in 10.0 mi East 5.8 mph - N/A   Partly Cloudy
6:53 PM 78.1 °F - 69.1 °F 74% 30.01 in 10.0 mi East 10.4 mph - N/A   Scattered Clouds
7:53 PM 79.0 °F - 72.0 °F 79% 30.03 in 10.0 mi ENE 8.1 mph - N/A   Mostly Cloudy
8:46 PM 77.0 °F - 71.6 °F 83% 30.05 in 10.0 mi NE 18.4 mph 24.2 mph N/A   Overcast
8:53 PM 75.9 °F - 71.1 °F 85% 30.04 in 10.0 mi NNE 19.6 mph - N/A   Overcast
9:00 PM 75.2 °F - 69.8 °F 83% 30.06 in 10.0 mi NNE 15.0 mph - N/A   Overcast
9:42 PM 77.0 °F - 69.8 °F 78% 30.07 in 10.0 mi ENE 19.6 mph 23.0 mph N/A   Overcast
9:53 PM 75.9 °F - 71.1 °F 85% 30.06 in 10.0 mi ENE 17.3 mph - N/A   Overcast
10:00 PM 75.2 °F - 71.6 °F 89% 30.07 in 10.0 mi NE 15.0 mph 23.0 mph N/A   Overcast
10:53 PM 73.9 °F - 69.1 °F 85% 30.06 in 10.0 mi WNW 8.1 mph - N/A   Mostly Cloudy
11:08 PM 73.4 °F - 69.8 °F 88% 30.06 in 10.0 mi North 4.6 mph - N/A   Mostly Cloudy
11:26 PM 73.4 °F - 66.2 °F 78% 30.06 in 10.0 mi ENE 15.0 mph 24.2 mph 0.00 in Rain Light Rain
11:33 PM 73.4 °F - 68.0 °F 83% 30.06 in 10.0 mi ENE 15.0 mph - 0.00 in Rain Light Rain
11:53 PM 71.1 °F - 66.9 °F 87% 30.05 in 10.0 mi ENE 18.4 mph 24.2 mph 0.06 in Rain Heavy Rain